| time (UTC) | temp C | wind direction | speed KPH | gust KPH | rain 1hr cm | rain 24hr cm | rain mn cm | humidity % | barometer mb |
| 20260505070507 | 18 | 218 | 22.5 | 41.8 | 0.00 | 0.03 | 0.00 | 68 | 1001.7 |
| 20260505070003 | 18 | 185 | 20.9 | 41.8 | 0.00 | 0.03 | 0.00 | 67 | 1001.8 |
| 20260505065502 | 18 | 204 | 19.3 | 38.6 | 0.00 | 0.03 | 0.00 | 66 | 1002.0 |
| 20260505065004 | 18 | 203 | 19.3 | 35.4 | 0.00 | 0.03 | 0.00 | 66 | 1002.1 |
| 20260505064504 | 18 | 245 | 12.9 | 35.4 | 0.00 | 0.03 | 0.00 | 66 | 1002.0 |
| 20260505064002 | 18 | 169 | 17.7 | 41.8 | 0.00 | 0.03 | 0.00 | 66 | 1002.0 |
| 20260505063600 | 18 | 184 | 14.5 | 46.7 | 0.00 | 0.03 | 0.00 | 66 | 1002.0 |
| 20260505063059 | 18 | 226 | 19.3 | 46.7 | 0.00 | 0.03 | 0.00 | 66 | 1002.0 |
| 20260505062602 | 18 | 205 | 17.7 | 38.6 | 0.00 | 0.03 | 0.00 | 66 | 1002.1 |
| 20260505062100 | 18 | 173 | 14.5 | 33.8 | 0.00 | 0.03 | 0.00 | 66 | 1002.1 |
| 20260505061556 | 18 | 190 | 17.7 | 35.4 | 0.00 | 0.03 | 0.00 | 66 | 1002.3 |
| 20260505061056 | 18 | 203 | 16.1 | 37.0 | 0.00 | 0.03 | 0.00 | 66 | 1002.3 |
| 20260505060557 | 18 | 206 | 16.1 | 37.0 | 0.00 | 0.03 | 0.00 | 66 | 1002.3 |
| 20260505060056 | 18 | 179 | 11.3 | 51.5 | 0.00 | 0.03 | 0.00 | 66 | 1002.3 |
| 20260505055558 | 18 | 202 | 22.5 | 51.5 | 0.00 | 0.03 | 0.00 | 66 | 1002.4 |
| 20260505055055 | 18 | 201 | 14.5 | 41.8 | 0.00 | 0.03 | 0.00 | 66 | 1002.4 |
| 20260505054554 | 18 | 195 | 24.1 | 53.1 | 0.00 | 0.03 | 0.00 | 66 | 1002.6 |
| 20260505054055 | 18 | 224 | 24.1 | 46.7 | 0.00 | 0.03 | 0.00 | 66 | 1002.5 |
| 20260505053551 | 18 | 200 | 17.7 | 43.5 | 0.00 | 0.03 | 0.00 | 66 | 1002.6 |
| 20260505053152 | 18 | 247 | 19.3 | 40.2 | 0.00 | 0.03 | 0.00 | 66 | 1002.6 |
| 20260505052550 | 18 | 181 | 17.7 | 40.2 | 0.00 | 0.03 | 0.00 | 66 | 1002.7 |
| 20260505052049 | 18 | 173 | 17.7 | 40.2 | 0.00 | 0.03 | 0.00 | 67 | 1002.8 |
| 20260505051558 | 18 | 191 | 12.9 | 37.0 | 0.00 | 0.03 | 0.00 | 67 | 1002.7 |
| 20260505051048 | 18 | 197 | 17.7 | 35.4 | 0.00 | 0.03 | 0.00 | 67 | 1002.9 |
| 20260505050551 | 18 | 201 | 17.7 | 43.5 | 0.00 | 0.03 | 0.00 | 67 | 1002.8 |
| 20260505041540 | 17 | 175 | 16.1 | 37.0 | 0.00 | 0.03 | 0.00 | 67 | 1003.2 |
| 20260505041039 | 17 | 159 | 16.1 | 37.0 | 0.00 | 0.03 | 0.00 | 67 | 1003.2 |
| 20260505040538 | 17 | 173 | 17.7 | 37.0 | 0.00 | 0.03 | 0.00 | 67 | 1003.2 |
| 20260505040038 | 17 | 236 | 14.5 | 33.8 | 0.00 | 0.03 | 0.00 | 67 | 1003.2 |
| 20260505035537 | 17 | 176 | 12.9 | 33.8 | 0.00 | 0.03 | 0.03 | 67 | 1003.3 |
| 20260505035036 | 17 | 201 | 14.5 | 33.8 | 0.00 | 0.03 | 0.03 | 67 | 1003.4 |
| 20260505034536 | 17 | 201 | 19.3 | 33.8 | 0.00 | 0.03 | 0.03 | 67 | 1003.5 |
| 20260505034037 | 17 | 205 | 14.5 | 43.5 | 0.00 | 0.03 | 0.03 | 67 | 1003.4 |
| 20260505033536 | 17 | 152 | 22.5 | 45.1 | 0.00 | 0.03 | 0.03 | 66 | 1003.3 |
| 20260505033038 | 17 | 125 | 22.5 | 45.1 | 0.00 | 0.03 | 0.03 | 66 | 1003.5 |
| 20260505032535 | 17 | 168 | 16.1 | 37.0 | 0.00 | 0.03 | 0.03 | 66 | 1003.5 |
| 20260505032038 | 18 | 161 | 12.9 | 37.0 | 0.00 | 0.03 | 0.03 | 66 | 1003.5 |
| 20260505031534 | 18 | 206 | 14.5 | 40.2 | 0.00 | 0.03 | 0.03 | 66 | 1003.6 |
| 20260505031035 | 18 | 173 | 14.5 | 40.2 | 0.00 | 0.03 | 0.03 | 66 | 1003.5 |
| 20260505030536 | 18 | 168 | 17.7 | 40.2 | 0.00 | 0.03 | 0.03 | 66 | 1003.6 |
| 20260505030034 | 18 | 193 | 8.0 | 32.2 | 0.00 | 0.03 | 0.03 | 65 | 1003.6 |
| 20260505025534 | 18 | 188 | 16.1 | 38.6 | 0.00 | 0.03 | 0.03 | 65 | 1003.5 |
| 20260505025036 | 18 | 200 | 19.3 | 38.6 | 0.00 | 0.03 | 0.03 | 65 | 1003.6 |
| 20260505024534 | 18 | 241 | 12.9 | 41.8 | 0.00 | 0.03 | 0.03 | 65 | 1003.6 |
| 20260505024036 | 18 | 169 | 17.7 | 41.8 | 0.00 | 0.03 | 0.03 | 64 | 1003.6 |
| 20260505023538 | 18 | 204 | 12.9 | 40.2 | 0.00 | 0.03 | 0.03 | 64 | 1003.5 |
| 20260505023033 | 18 | 188 | 14.5 | 30.6 | 0.00 | 0.03 | 0.03 | 64 | 1003.6 |
| 20260505022533 | 18 | 180 | 11.3 | 33.8 | 0.00 | 0.03 | 0.03 | 63 | 1003.5 |
| 20260505022032 | 18 | 171 | 17.7 | 33.8 | 0.00 | 0.03 | 0.03 | 63 | 1003.5 |
| 20260505021533 | 18 | 179 | 12.9 | 30.6 | 0.00 | 0.03 | 0.03 | 62 | 1003.5 |
| 20260505021032 | 18 | 100 | 12.9 | 33.8 | 0.00 | 0.03 | 0.03 | 62 | 1003.5 |
| 20260505020532 | 18 | 188 | 14.5 | 37.0 | 0.00 | 0.03 | 0.03 | 61 | 1003.8 |
| 20260505020032 | 18 | 149 | 19.3 | 53.1 | 0.00 | 0.03 | 0.03 | 61 | 1003.8 |
| 20260505015532 | 19 | 229 | 14.5 | 53.1 | 0.00 | 0.03 | 0.03 | 61 | 1003.8 |
| 20260505015035 | 19 | 213 | 12.9 | 46.7 | 0.00 | 0.03 | 0.03 | 60 | 1003.7 |
| 20260505014532 | 19 | 221 | 20.9 | 51.5 | 0.00 | 0.03 | 0.03 | 60 | 1003.7 |
| 20260505014033 | 19 | 213 | 16.1 | 51.5 | 0.00 | 0.03 | 0.03 | 60 | 1003.7 |
| 20260505013531 | 19 | 192 | 16.1 | 35.4 | 0.00 | 0.03 | 0.03 | 59 | 1003.6 |
| 20260505013039 | 19 | 96 | 12.9 | 37.0 | 0.00 | 0.03 | 0.03 | 59 | 1003.6 |
| 20260505012530 | 19 | 236 | 17.7 | 45.1 | 0.00 | 0.03 | 0.03 | 59 | 1003.5 |
| 20260505012030 | 19 | 190 | 24.1 | 45.1 | 0.00 | 0.03 | 0.03 | 59 | 1003.5 |
| 20260505011530 | 19 | 188 | 22.5 | 43.5 | 0.00 | 0.03 | 0.03 | 59 | 1003.5 |
| 20260505011029 | 20 | 229 | 16.1 | 29.0 | 0.00 | 0.03 | 0.03 | 58 | 1003.3 |
| 20260505010529 | 20 | 179 | 11.3 | 41.8 | 0.00 | 0.03 | 0.03 | 58 | 1003.4 |
| 20260505010030 | 20 | 204 | 20.9 | 41.8 | 0.00 | 0.03 | 0.03 | 58 | 1003.4 |
| 20260505005533 | 20 | 210 | 12.9 | 33.8 | 0.00 | 0.03 | 0.03 | 58 | 1003.2 |
| 20260505005029 | 20 | 220 | 12.9 | 32.2 | 0.00 | 0.03 | 0.03 | 58 | 1003.2 |
| 20260505004529 | 20 | 177 | 12.9 | 29.0 | 0.00 | 0.03 | 0.03 | 58 | 1003.1 |
| 20260505004029 | 20 | 214 | 12.9 | 32.2 | 0.00 | 0.03 | 0.03 | 58 | 1003.0 |
| 20260505003533 | 20 | 199 | 17.7 | 32.2 | 0.00 | 0.03 | 0.03 | 58 | 1003.0 |
| 20260505003032 | 20 | 309 | 9.7 | 29.0 | 0.00 | 0.03 | 0.03 | 57 | 1003.0 |
| 20260505002528 | 20 | 218 | 14.5 | 33.8 | 0.00 | 0.03 | 0.03 | 57 | 1003.0 |
| 20260505002030 | 20 | 238 | 14.5 | 48.3 | 0.00 | 0.03 | 0.03 | 57 | 1002.9 |
| 20260505001528 | 20 | 167 | 24.1 | 48.3 | 0.00 | 0.03 | 0.03 | 57 | 1002.8 |
| 20260505001029 | 20 | 211 | 25.7 | 45.1 | 0.00 | 0.03 | 0.03 | 57 | 1002.8 |
| 20260505000531 | 20 | 184 | 16.1 | 41.8 | 0.00 | 0.03 | 0.03 | 57 | 1002.6 |
| 20260505000029 | 20 | 176 | 14.5 | 33.8 | 0.00 | 0.03 | 0.03 | 57 | 1002.5 |
| 20260504235527 | 21 | 217 | 14.5 | 43.5 | 0.00 | 0.03 | 0.03 | 56 | 1002.4 |
| 20260504235027 | 21 | 189 | 30.6 | 43.5 | 0.00 | 0.03 | 0.03 | 56 | 1002.3 |
| 20260504234526 | 21 | 185 | 14.5 | 33.8 | 0.00 | 0.03 | 0.03 | 56 | 1002.3 |
| 20260504234031 | 21 | 190 | 17.7 | 30.6 | 0.03 | 0.03 | 0.03 | 57 | 1002.3 |
| 20260504233526 | 21 | 194 | 14.5 | 53.1 | 0.03 | 0.03 | 0.03 | 57 | 1002.2 |
| 20260504233026 | 21 | 240 | 29.0 | 53.1 | 0.03 | 0.03 | 0.03 | 57 | 1002.3 |
| 20260504232526 | 21 | 191 | 12.9 | 41.8 | 0.03 | 0.03 | 0.03 | 58 | 1002.2 |
| 20260504232027 | 21 | 202 | 11.3 | 56.3 | 0.03 | 0.03 | 0.03 | 58 | 1002.2 |
| 20260504231526 | 21 | 209 | 14.5 | 56.3 | 0.03 | 0.03 | 0.03 | 58 | 1002.2 |
| 20260504231025 | 21 | 181 | 22.5 | 49.9 | 0.03 | 0.03 | 0.03 | 59 | 1002.3 |
| 20260504230525 | 21 | 214 | 17.7 | 46.7 | 0.03 | 0.03 | 0.03 | 60 | 1002.4 |
| 20260504230025 | 21 | 216 | 22.5 | 62.8 | 0.03 | 0.03 | 0.03 | 60 | 1002.2 |
| 20260504225524 | 20 | 196 | 22.5 | 62.8 | 0.03 | 0.03 | 0.03 | 61 | 1002.4 |
| 20260504225024 | 20 | 220 | 14.5 | 49.9 | 0.03 | 0.03 | 0.03 | 63 | 1002.7 |
| 20260504224522 | 20 | 229 | 20.9 | 51.5 | 0.03 | 0.03 | 0.03 | 63 | 1002.7 |
| 20260504224022 | 20 | 184 | 25.7 | 51.5 | 0.00 | 0.00 | 0.00 | 64 | 1002.7 |
| 20260504223521 | 20 | 205 | 12.9 | 33.8 | 0.00 | 0.00 | 0.00 | 67 | 1002.6 |
| 20260504223020 | 19 | 183 | 17.7 | 33.8 | 0.00 | 0.00 | 0.00 | 68 | 1002.7 |
| 20260504222523 | 19 | 160 | 8.0 | 27.4 | 0.00 | 0.00 | 0.00 | 69 | 1002.8 |
| 20260504222021 | 19 | 214 | 11.3 | 27.4 | 0.00 | 0.00 | 0.00 | 70 | 1002.8 |
| 20260504221518 | 19 | 126 | 6.4 | 17.7 | 0.00 | 0.00 | 0.00 | 70 | 1003.0 |
| 20260504221018 | 19 | 227 | 9.7 | 29.0 | 0.00 | 0.00 | 0.00 | 68 | 1003.2 |
| 20260504220518 | 20 | 206 | 12.9 | 43.5 | 0.00 | 0.00 | 0.00 | 68 | 1003.2 |
| 20260504220029 | 20 | 204 | 16.1 | 56.3 | 0.00 | 0.00 | 0.00 | 66 | 1003.3 |
| 20260504215515 | 20 | 210 | 30.6 | 56.3 | 0.00 | 0.00 | 0.00 | 64 | 1003.5 |
| 20260504215014 | 21 | 153 | 27.4 | 49.9 | 0.00 | 0.00 | 0.00 | 57 | 1003.2 |
| 20260504214520 | 21 | 260 | 11.3 | 37.0 | 0.00 | 0.00 | 0.00 | 56 | 1003.1 |
| 20260504214017 | 21 | 194 | 20.9 | 37.0 | 0.00 | 0.00 | 0.00 | 56 | 1003.1 |
| 20260504213513 | 21 | 274 | 16.1 | 33.8 | 0.00 | 0.00 | 0.00 | 56 | 1002.9 |
| 20260504213133 | 21 | 276 | 14.5 | 32.2 | 0.00 | 0.00 | 0.00 | 57 | 1002.9 |
| 20260504212511 | 21 | 167 | 14.5 | 45.1 | 0.00 | 0.00 | 0.00 | 56 | 1003.0 |
| 20260504212010 | 21 | 184 | 24.1 | 38.6 | 0.00 | 0.00 | 0.00 | 55 | 1003.0 |
| 20260504211521 | 21 | 197 | 20.9 | 45.1 | 0.00 | 0.00 | 0.00 | 54 | 1003.1 |
| 20260504211008 | 21 | 201 | 24.1 | 45.1 | 0.00 | 0.00 | 0.00 | 54 | 1003.3 |
| 20260504210508 | 21 | 204 | 22.5 | 45.1 | 0.00 | 0.00 | 0.00 | 55 | 1003.4 |
| 20260504210007 | 21 | 219 | 20.9 | 45.1 | 0.00 | 0.00 | 0.00 | 54 | 1003.3 |
| 20260504205509 | 21 | 201 | 22.5 | 41.8 | 0.00 | 0.00 | 0.00 | 53 | 1003.5 |
| 20260504205005 | 22 | 206 | 20.9 | 46.7 | 0.00 | 0.00 | 0.00 | 52 | 1003.5 |
| 20260504204514 | 22 | 226 | 12.9 | 51.5 | 0.00 | 0.00 | 0.00 | 53 | 1003.5 |
| 20260504204005 | 22 | 215 | 24.1 | 59.5 | 0.00 | 0.00 | 0.00 | 52 | 1003.5 |
| 20260504203508 | 22 | 207 | 24.1 | 59.5 | 0.00 | 0.00 | 0.00 | 51 | 1003.5 |
| 20260504203006 | 22 | 166 | 20.9 | 49.9 | 0.00 | 0.00 | 0.00 | 51 | 1003.6 |
| 20260504202503 | 22 | 205 | 24.1 | 56.3 | 0.00 | 0.00 | 0.00 | 51 | 1003.7 |
| 20260504202001 | 22 | 231 | 29.0 | 56.3 | 0.00 | 0.00 | 0.00 | 49 | 1003.8 |
| 20260504201503 | 22 | 213 | 25.7 | 45.1 | 0.00 | 0.00 | 0.00 | 50 | 1003.9 |
| 20260504201001 | 22 | 229 | 24.1 | 38.6 | 0.00 | 0.00 | 0.00 | 50 | 1003.7 |
| 20260504200600 | 22 | 220 | 19.3 | 46.7 | 0.00 | 0.00 | 0.00 | 49 | 1003.8 |
| 20260504200107 | 22 | 213 | 24.1 | 57.9 | 0.00 | 0.00 | 0.00 | 49 | 1003.9 |
| 20260504195559 | 22 | 161 | 17.7 | 57.9 | 0.00 | 0.00 | 0.00 | 50 | 1004.0 |
| 20260504195059 | 22 | 221 | 22.5 | 45.1 | 0.00 | 0.00 | 0.00 | 48 | 1004.1 |
| 20260504194609 | 22 | 189 | 25.7 | 57.9 | 0.00 | 0.00 | 0.00 | 48 | 1004.2 |
| 20260504194058 | 22 | 195 | 22.5 | 57.9 | 0.00 | 0.00 | 0.00 | 49 | 1004.1 |
| 20260504193558 | 22 | 175 | 20.9 | 40.2 | 0.00 | 0.00 | 0.00 | 49 | 1004.1 |
| 20260504193104 | 22 | 188 | 20.9 | 57.9 | 0.00 | 0.00 | 0.00 | 50 | 1004.2 |
| 20260504192555 | 22 | 221 | 24.1 | 57.9 | 0.00 | 0.00 | 0.00 | 47 | 1004.4 |
| 20260504192104 | 22 | 211 | 19.3 | 40.2 | 0.00 | 0.00 | 0.00 | 51 | 1004.5 |
| 20260504191600 | 22 | 185 | 20.9 | 41.8 | 0.00 | 0.00 | 0.00 | 50 | 1004.4 |
| 20260504191054 | 22 | 180 | 20.9 | 54.7 | 0.00 | 0.00 | 0.00 | 51 | 1004.6 |
| 20260504190553 | 22 | 131 | 22.5 | 54.7 | 0.00 | 0.00 | 0.00 | 51 | 1004.6 |
| 20260504190113 | 22 | 180 | 16.1 | 43.5 | 0.00 | 0.00 | 0.00 | 51 | 1004.7 |
| 20260504185556 | 22 | 162 | 19.3 | 43.5 | 0.00 | 0.00 | 0.00 | 51 | 1004.7 |
| 20260504185050 | 22 | 176 | 20.9 | 43.5 | 0.00 | 0.00 | 0.00 | 51 | 1004.9 |
| 20260504184608 | 22 | 197 | 22.5 | 41.8 | 0.00 | 0.00 | 0.00 | 51 | 1004.9 |
| 20260504184049 | 22 | 245 | 20.9 | 49.9 | 0.00 | 0.00 | 0.00 | 52 | 1005.0 |
| 20260504183549 | 22 | 223 | 27.4 | 49.9 | 0.00 | 0.00 | 0.00 | 51 | 1005.1 |
| 20260504183048 | 22 | 216 | 25.7 | 56.3 | 0.00 | 0.00 | 0.00 | 51 | 1005.2 |
| 20260504182547 | 22 | 218 | 20.9 | 56.3 | 0.00 | 0.00 | 0.00 | 51 | 1005.1 |
| 20260504182047 | 22 | 234 | 25.7 | 45.1 | 0.00 | 0.00 | 0.00 | 50 | 1005.2 |
| 20260504181548 | 22 | 198 | 16.1 | 49.9 | 0.00 | 0.00 | 0.00 | 49 | 1005.2 |
| 20260504181044 | 22 | 221 | 19.3 | 49.9 | 0.00 | 0.00 | 0.00 | 53 | 1005.2 |
| 20260504180544 | 21 | 171 | 14.5 | 46.7 | 0.00 | 0.00 | 0.00 | 49 | 1005.2 |
| 20260504180044 | 22 | 147 | 22.5 | 45.1 | 0.00 | 0.00 | 0.00 | 49 | 1005.4 |
| 20260504175542 | 21 | 230 | 12.9 | 45.1 | 0.00 | 0.00 | 0.00 | 51 | 1005.4 |
| 20260504175042 | 21 | 227 | 19.3 | 43.5 | 0.00 | 0.00 | 0.00 | 51 | 1005.5 |
| 20260504174542 | 21 | 130 | 20.9 | 43.5 | 0.00 | 0.00 | 0.00 | 49 | 1005.5 |
| 20260504174041 | 21 | 173 | 24.1 | 43.5 | 0.00 | 0.00 | 0.00 | 50 | 1005.6 |
| 20260504173541 | 21 | 176 | 16.1 | 33.8 | 0.00 | 0.00 | 0.00 | 50 | 1005.6 |
| 20260504173039 | 21 | 154 | 14.5 | 41.8 | 0.00 | 0.00 | 0.00 | 51 | 1005.7 |
| 20260504172539 | 21 | 163 | 17.7 | 41.8 | 0.00 | 0.00 | 0.00 | 50 | 1005.6 |
| 20260504172038 | 21 | 188 | 17.7 | 41.8 | 0.00 | 0.00 | 0.00 | 50 | 1005.7 |
| 20260504171537 | 21 | 209 | 12.9 | 29.0 | 0.00 | 0.00 | 0.00 | 52 | 1005.8 |
| 20260504171037 | 21 | 214 | 12.9 | 30.6 | 0.00 | 0.00 | 0.00 | 54 | 1005.8 |
| 20260504170534 | 21 | 223 | 12.9 | 40.2 | 0.00 | 0.00 | 0.00 | 52 | 1005.9 |
| 20260504151011 | 18 | 220 | 17.7 | 45.1 | 0.00 | 0.00 | 0.00 | 56 | 1007.0 |
| 20260504150510 | 18 | 211 | 20.9 | 45.1 | 0.00 | 0.00 | 0.00 | 56 | 1007.0 |
| 20260504141056 | 16 | 240 | 17.7 | 32.2 | 0.00 | 0.00 | 0.00 | 59 | 1007.3 |
| 20260504140554 | 16 | 204 | 17.7 | 30.6 | 0.00 | 0.00 | 0.00 | 60 | 1007.4 |
| 20260504140107 | 16 | 203 | 12.9 | 33.8 | 0.00 | 0.00 | 0.00 | 60 | 1007.5 |
| 20260504130541 | 13 | 213 | 14.5 | 32.2 | 0.00 | 0.00 | 0.00 | 62 | 1007.8 |
| 20260504110519 | 10 | 216 | 16.1 | 38.6 | 0.00 | 0.00 | 0.00 | 65 | 1007.7 |
| 20260504100511 | 10 | 180 | 14.5 | 37.0 | 0.00 | 0.00 | 0.00 | 64 | 1007.6 |
| 20260504081557 | 10 | 210 | 20.9 | 40.2 | 0.00 | 0.00 | 0.00 | 62 | 1008.5 |
| 20260504081057 | 10 | 202 | 19.3 | 40.2 | 0.00 | 0.00 | 0.00 | 62 | 1008.6 |
| 20260504080559 | 10 | 212 | 17.7 | 38.6 | 0.00 | 0.00 | 0.00 | 62 | 1008.6 |